TOURFACTS.DK  
Stats and Facts from Tour de France.

Tour de France 2019 starts in 320 days
  Riders   Stages   Teams   Summits   Yearly  


 
Search by year

After 2018 - Stage 21:
 15000 starters.
  5165 different riders.
  638 teams.
  2253 stages.
  456 restdays.
  442940.60 km.
  5684 abandonnees.


Top 3
GC
Geraint Thomas83:17:13
Tom Dumoulin83:19:04
Christopher Froome83:19:37
Climb
Julian Alaphilippe170 pt.
Warren Barguil91 pt.
Rafal Majka76 pt.
Sprint
Peter Sagan477 pt.
Alexander Kristoff246 pt.
Arnaud Démare203 pt.
Youth
Pierre-Roger Latou..83:39:26
Egan Bernal83:45:05
Guillaume Martin84:01:31
Facts from Tour de France 2017
  |   Stages.  |   Stage winners.  |   Days in yellow  |   Average speed.  |   Route.  |   Teams.  |   All riders.  |   Rookies.  |  

  |   Withdrawls.  |   GC.  |   Polka  |   Green  |   White  |   Summits. (In tour)  |   Miscellaneous.  |  

Stage 16 on 18 - 07 - 2017
         Owning:    Christopher Froome      Warren Barguil      Marcel Kittel      Simon Yates  

Pick a stage:  1 2 3 4 5 6 7 8 9 10 11 12 13 14 15 16 17 18 19 20 21
  Le Puy-en-VelayRomans-sur-Isère | Dist: 165.00 km.
Cat: 3Côte de BoussouletBELThomas De Gendt2 points 
Cat: 4Col du RouveyFRAWarren Barguil1 points 

Average speed for all riders in stage:  43,991 km./hr.
    Place:Name:Team:Time:Km/h:
1
AUSMichael MatthewsDEUTeam Sunweb03:38:15  +  00:00:00=45,361 
2
NOREdvald Boasson HagenZAFDimension Data03:38:15  +  00:00:00=45,361 
3
GERJohn DegenkolbUSATrek - Segafredo03:38:15  +  00:00:00=45,361 
44 BELGreg Van AvermaetUSABMC Racing Team03:38:15  +  00:00:00=45,361 
55 FRAChristophe LaporteFRACofidis – Solutions Crédits03:38:15  +  00:00:00=45,361 
66 BELJens KeukeleireAUSOrica - Scott03:38:15  +  00:00:00=45,361 
77 FRATony GallopinBELLotto Soudal03:38:15  +  00:00:00=45,361 
88 BELTiesj BenootBELLotto Soudal03:38:15  +  00:00:00=45,361 
99 POLMaciej BodnarDEUBora–Hansgrohe03:38:15  +  00:00:00=45,361 
1010 FRARomain HardyFRAFortuneo - Vital Concept03:38:15  +  00:00:00=45,361 
1111 RSAReinardt Janse Van RensburgZAFDimension Data03:38:15  +  00:00:00=45,361 
1212 COLRigoberto UránUSACannondale-Drapac Pro Cycling ..03:38:15  +  00:00:00=45,361 
1313 KENChristopher FroomeGBRSky Procycling03:38:15  +  00:00:00=45,361 
1414 ENGSimon YatesAUSOrica - Scott03:38:15  +  00:00:00=45,361 
1515 ESPMikel Landa MeanaGBRSky Procycling03:38:15  +  00:00:00=45,361 
1616 FRARomain BardetFRAAg2r La Mondiale03:38:15  +  00:00:00=45,361 
1717 ITADamiano CarusoUSABMC Racing Team03:38:15  +  00:00:00=45,361 
1818 ITAFabio AruKAZAstana Pro Team03:38:15  +  00:00:00=45,361 
1919 COLNairo QuintanaESPMovistar Team03:38:15  +  00:00:00=45,361 
2020 ESPImanol ErvitiESPMovistar Team03:38:15  +  00:00:00=45,361 
2121 FRAWarren BarguilDEUTeam Sunweb03:38:15  +  00:00:00=45,361 
2222 SUIStefan KüngUSABMC Racing Team03:38:15  +  00:00:00=45,361 
2323 BELOliver NaesenFRAAg2r La Mondiale03:38:15  +  00:00:00=45,361 
2424 FRANicolas RocheUSABMC Racing Team03:38:32  +  00:00:17=45,302 
2525 SUIMichael SchärUSABMC Racing Team03:38:32  +  00:00:17=45,302 
2626 GERNikias ArndtDEUTeam Sunweb03:38:37  +  00:00:22=45,285 
2727 ENGScott ThwaitesZAFDimension Data03:38:38  +  00:00:23=45,281 
2828 ITADaniele BennatiESPMovistar Team03:38:43  +  00:00:28=45,264 
2929 RSALouis MeintjesUAEUAE Team Emirates03:39:06  +  00:00:51=45,185 
3030 FRAPierre-Roger LatourFRAAg2r La Mondiale03:39:06  +  00:00:51=45,185 
3131 ENGDaniel MartinBELQuick-Step Floors03:39:06  +  00:00:51=45,185 
3232 RSADaryl ImpeyAUSOrica - Scott03:39:06  +  00:00:51=45,185 
3333 GEREmanuel BuchmannDEUBora–Hansgrohe03:39:06  +  00:00:51=45,185 
3434 FRAAlexis VuillermozFRAAg2r La Mondiale03:39:06  +  00:00:51=45,185 
3535 COLSergio Luis HenaoGBRSky Procycling03:39:06  +  00:00:51=45,185 
3636 FRAGuillaume MartinBELWanty – Groupe Gobert03:39:06  +  00:00:51=45,185 
3737 FRASylvain ChavanelFRADirect Energie03:39:06  +  00:00:51=45,185 
3838 NEDDylan Van BaarleUSACannondale-Drapac Pro Cycling ..03:39:06  +  00:00:51=45,185 
3939 AUSJay McCarthyDEUBora–Hansgrohe03:39:06  +  00:00:51=45,185 
4040 FRAAmaël MoinardUSABMC Racing Team03:39:06  +  00:00:51=45,185 
4141 FRAPierre-Luc PérichonFRAFortuneo - Vital Concept03:39:06  +  00:00:51=45,185 
4242 NORAlexander KristoffCHETeam Katusha - Alpecin03:39:08  +  00:00:53=45,178 
4343 GERAndré GreipelBELLotto Soudal03:39:40  +  00:01:25=45,068 
4444 FRABrice FeilluFRAFortuneo - Vital Concept03:39:48  +  00:01:33=45,041 
4545 JPNYukiya ArashiroBHRBahrain-Merida03:39:48  +  00:01:33=45,041 
4646 ESPAlberto ContadorUSATrek - Segafredo03:39:48  +  00:01:33=45,041 
4747 GERJasha SütterlinESPMovistar Team03:39:48  +  00:01:33=45,041 
4848 BELSerge PauwelsZAFDimension Data03:39:48  +  00:01:33=45,041 
4949 FRAAdrien PetitFRADirect Energie03:39:48  +  00:01:33=45,041 
5050 ITADiego UlissiUAEUAE Team Emirates03:39:48  +  00:01:33=45,041 
5151 GERGianluca BrambillaBELQuick-Step Floors03:39:48  +  00:01:33=45,041 
5252 HRVRobert KiserlovskiCHETeam Katusha - Alpecin03:39:48  +  00:01:33=45,041 
5353 ESPMikel NieveGBRSky Procycling03:39:48  +  00:01:33=45,041 
5454 COLCarlos Alberto BetancurESPMovistar Team03:39:48  +  00:01:33=45,041 
5555 CRCAndrey AmadorESPMovistar Team03:39:48  +  00:01:33=45,041 
5656 ENGBen SwiftUAEUAE Team Emirates03:39:48  +  00:01:33=45,041 
5757 HRVKristijan DurasekUAEUAE Team Emirates03:39:48  +  00:01:33=45,041 
5858 CZERoman KreuzigerAUSOrica - Scott03:39:48  +  00:01:33=45,041 
5959 ITAMatteo BonoUAEUAE Team Emirates03:39:48  +  00:01:33=45,041 
6060 FRARudy MolardFRAFDJ03:39:48  +  00:01:33=45,041 
6161 COLJohan Esteban ChavesAUSOrica - Scott03:39:48  +  00:01:33=45,041 
6262 AUTBernhard EiselZAFDimension Data03:39:48  +  00:01:33=45,041 
6363 FRAElie GesbertFRAFortuneo - Vital Concept03:39:48  +  00:01:33=45,041 
6464 BELJan BakelantsFRAAg2r La Mondiale03:39:48  +  00:01:33=45,041 
6565 SUIMathias FrankFRAAg2r La Mondiale03:39:55  +  00:01:40=45,017 
6666 POLPawel PoljanskiDEUBora–Hansgrohe03:39:58  +  00:01:43=45,007 
6767 FRANacer BouhanniFRACofidis – Solutions Crédits03:39:58  +  00:01:43=45,007 
6868 NEDBauke MollemaUSATrek - Segafredo03:39:58  +  00:01:43=45,007 
6969 UKRAndriy GrivkoKAZAstana Pro Team03:40:13  +  00:01:58=44,956 
7070 ITAMarco MarcatoUAEUAE Team Emirates03:40:21  +  00:02:06=44,929 
7171 FRALilian CalmejaneFRADirect Energie03:40:24  +  00:02:09=44,918 
7272 GERChristian KneesGBRSky Procycling03:40:29  +  00:02:14=44,901 
7373 ITASonny ColbrelliBHRBahrain-Merida03:40:47  +  00:02:32=44,840 
7474 BLRVasil KiryienkaGBRSky Procycling03:40:54  +  00:02:39=44,817 
7575 NZLJack BauerBELQuick-Step Floors03:40:59  +  00:02:44=44,800 
7676 NEDKoen De KortUSATrek - Segafredo03:41:06  +  00:02:51=44,776 
7777 NEDRamon SinkeldamDEUTeam Sunweb03:41:06  +  00:02:51=44,776 
7878 USANathan BrownUSACannondale-Drapac Pro Cycling ..03:41:06  +  00:02:51=44,776 
7979 FRAMaxime BouetFRAFortuneo - Vital Concept03:41:06  +  00:02:51=44,776 
8080 GERPaul MartensNLDTeam Lotto NL - Jumbo03:41:06  +  00:02:51=44,776 
8181 SLOJanez BrajkovicBHRBahrain-Merida03:41:06  +  00:02:51=44,776 
8282 ESPHaimar ZubeldiaUSATrek - Segafredo03:41:06  +  00:02:51=44,776 
8383 LUXBen GastauerFRAAg2r La Mondiale03:41:06  +  00:02:51=44,776 
8484 NEDMarco MinnaardBELWanty – Groupe Gobert03:41:06  +  00:02:51=44,776 
8585 COLDarwin AtapumaUAEUAE Team Emirates03:41:06  +  00:02:51=44,776 
8686 FRAPierre RollandUSACannondale-Drapac Pro Cycling ..03:41:06  +  00:02:51=44,776 
8787 ETHTsgabu Gebremaryan GrmayBHRBahrain-Merida03:41:06  +  00:02:51=44,776 
8888 KAZDmitriy GruzdevKAZAstana Pro Team03:41:50  +  00:03:35=44,628 
8989 FRAYohann GèneFRADirect Energie03:42:39  +  00:04:24=44,464 
9090 PORTiago PintoCHETeam Katusha - Alpecin03:43:09  +  00:04:54=44,365 
9191 DENMichael ValgrenKAZAstana Pro Team03:43:09  +  00:04:54=44,365 
9292 BELThomas De GendtBELLotto Soudal03:43:09  +  00:04:54=44,365 
9393 FRAPerrig QuemeneurFRADirect Energie03:43:09  +  00:04:54=44,365 
9494 BELThomas DegandBELWanty – Groupe Gobert03:43:09  +  00:04:54=44,365 
9595 FRAThomas VoecklerFRADirect Energie03:43:09  +  00:04:54=44,365 
9696 GERSimon GeschkeDEUTeam Sunweb03:43:09  +  00:04:54=44,365 
9797 FRAThomas BoudatFRADirect Energie03:43:09  +  00:04:54=44,365 
9898 FRARomain SicardFRADirect Energie03:43:20  +  00:05:05=44,328 
9999 ESPJonathan CastroviejoESPMovistar Team03:43:20  +  00:05:05=44,328 
100100 ITADavide CimolaiFRAFDJ03:43:20  +  00:05:05=44,328 
101101 GERNils PolittCHETeam Katusha - Alpecin03:43:20  +  00:05:05=44,328 
102102 ESPJesus HerradaESPMovistar Team03:43:20  +  00:05:05=44,328 
103103 POLMichal KwiatkowskiGBRSky Procycling03:43:20  +  00:05:05=44,328 
104104 FRACyril LemoineFRACofidis – Solutions Crédits03:43:34  +  00:05:19=44,282 
105105 ITAAlessandro De MarchiUSABMC Racing Team03:44:00  +  00:05:45=44,196 
106106 NEDMike TeunissenDEUTeam Sunweb03:44:34  +  00:06:19=44,085 
107107 NEDRoy CurversDEUTeam Sunweb03:44:34  +  00:06:19=44,085 
108108 KAZAndrey ZeitsKAZAstana Pro Team03:44:34  +  00:06:19=44,085 
109109 SUIMichael AlbasiniAUSOrica - Scott03:44:34  +  00:06:19=44,085 
110110 FRAThibaut PinotFRAFDJ03:44:34  +  00:06:19=44,085 
111111 FRAAxel DomontFRAAg2r La Mondiale03:44:34  +  00:06:19=44,085 
112112 NZLPaddy BevinUSACannondale-Drapac Pro Cycling ..03:44:34  +  00:06:19=44,085 
113113 ARGEduardo SepulvedaFRAFortuneo - Vital Concept03:44:34  +  00:06:19=44,085 
114114 ESPDaniel NavarroFRACofidis – Solutions Crédits03:44:34  +  00:06:19=44,085 
115115 KAZAlexey LutsenkoKAZAstana Pro Team03:45:00  +  00:06:45=44,000 
116116 USAAndrew TalanskyUSACannondale-Drapac Pro Cycling ..03:45:17  +  00:07:02=43,945 
117117 KAZBakhtiyar KozhatayevKAZAstana Pro Team03:45:53  +  00:07:38=43,828 
118118 ESPJavier Moreno BazánBHRBahrain-Merida03:47:24  +  00:09:09=43,536 
119119 AUSDamien HowsonAUSOrica - Scott03:47:24  +  00:09:09=43,536 
120120 NEDAlbert TimmerDEUTeam Sunweb03:48:14  +  00:09:59=43,377 
121121 NEDLaurens ten DamDEUTeam Sunweb03:48:14  +  00:09:59=43,377 
122122 COLJarlinson Pantano GomezUSATrek - Segafredo03:48:14  +  00:09:59=43,377 
123123 ENGStephen CummingsZAFDimension Data03:48:14  +  00:09:59=43,377 
124124 DENLars BakBELLotto Soudal03:54:34  +  00:16:19=42,205 
125125 ITAFabio SabatiniBELQuick-Step Floors03:54:34  +  00:16:19=42,205 
126126 BELGuillaume Van KeirsbulckBELWanty – Groupe Gobert03:54:34  +  00:16:19=42,205 
127127 GERMarcel SiebergBELLotto Soudal03:54:34  +  00:16:19=42,205 
128128 AUSAdam HansenBELLotto Soudal03:54:34  +  00:16:19=42,205 
129129 WALLuke RoweGBRSky Procycling03:54:34  +  00:16:19=42,205 
130130 GERMarcus BurghardtDEUBora–Hansgrohe03:54:34  +  00:16:19=42,205 
131131 NEDMaurits LammertinkCHETeam Katusha - Alpecin03:54:34  +  00:16:19=42,205 
132132 ESPMarkel IrizarUSATrek - Segafredo03:54:34  +  00:16:19=42,205 
133133 AUSMathew HaymanAUSOrica - Scott03:54:34  +  00:16:19=42,205 
134134 BELJulien VermoteBELQuick-Step Floors03:54:34  +  00:16:19=42,205 
135135 AUTMarco HallerCHETeam Katusha - Alpecin03:54:34  +  00:16:19=42,205 
136136 GERMarcel KittelBELQuick-Step Floors03:54:34  +  00:16:19=42,205 
137137 FRAFlorian VachonFRAFortuneo - Vital Concept03:54:34  +  00:16:19=42,205 
138138 AUSSimon ClarkeUSACannondale-Drapac Pro Cycling ..03:54:34  +  00:16:19=42,205 
139139 SUIDanilo WyssUSABMC Racing Team03:54:34  +  00:16:19=42,205 
140140 SUIReto HollensteinCHETeam Katusha - Alpecin03:54:34  +  00:16:19=42,205 
141141 SLOBorut BozicBHRBahrain-Merida03:54:34  +  00:16:19=42,205 
142142 FRACyril GautierFRAAg2r La Mondiale03:54:34  +  00:16:19=42,205 
143143 DDRRüdiger SeligDEUBora–Hansgrohe03:54:34  +  00:16:19=42,205 
144144 NEDTimo RoosenNLDTeam Lotto NL - Jumbo03:54:34  +  00:16:19=42,205 
145145 ITAAndrea PasqualonBELWanty – Groupe Gobert03:54:34  +  00:16:19=42,205 
146146 AUTMichael GoglUSATrek - Segafredo03:54:34  +  00:16:19=42,205 
147147 NORVegard Stake LaengenUAEUAE Team Emirates03:54:34  +  00:16:19=42,205 
148148 BELPieter VanspeybrouckBELWanty – Groupe Gobert03:54:34  +  00:16:19=42,205 
149149 BELFrederik BackaertBELWanty – Groupe Gobert03:54:34  +  00:16:19=42,205 
150150 FRAJulien SimonFRACofidis – Solutions Crédits03:54:34  +  00:16:19=42,205 
151151 FRANicolas EdetFRACofidis – Solutions Crédits03:54:34  +  00:16:19=42,205 
152152 FRAOlivier Le GacFRAFDJ03:54:34  +  00:16:19=42,205 
153153 GERTony MartinCHETeam Katusha - Alpecin03:54:34  +  00:16:19=42,205 
154154 BELDimitri ClaeysFRACofidis – Solutions Crédits03:54:34  +  00:16:19=42,205 
155155 FRAAngelo TulikFRADirect Energie03:54:34  +  00:16:19=42,205 
156156 BELJürgen RoelandtsBELLotto Soudal03:54:34  +  00:16:19=42,205 
157157 FRAFlorian SénéchalFRACofidis – Solutions Crédits03:54:34  +  00:16:19=42,205 
158158 SLOGrega BoleBHRBahrain-Merida03:54:34  +  00:16:19=42,205 
159159 NZLDion SmithBELWanty – Groupe Gobert03:54:34  +  00:16:19=42,205 
160160 CZEZdenek StybarBELQuick-Step Floors03:54:34  +  00:16:19=42,205 
161161 CZEOndrej CinkBHRBahrain-Merida03:54:34  +  00:16:19=42,205 
162162 GERRick ZabelCHETeam Katusha - Alpecin03:54:34  +  00:16:19=42,205 
163163 ITAAlberto BettiolUSACannondale-Drapac Pro Cycling ..03:54:34  +  00:16:19=42,205 
164164 NEDDylan GroenewegenNLDTeam Lotto NL - Jumbo03:54:34  +  00:16:19=42,205 
165165 SLOPrimoz RoglicNLDTeam Lotto NL - Jumbo03:54:34  +  00:16:19=42,205 
166166 NEDTom LeezerNLDTeam Lotto NL - Jumbo03:54:34  +  00:16:19=42,205 
167167 RSAJaco VenterZAFDimension Data03:54:34  +  00:16:19=42,205 
168168 GERRobert WagnerNLDTeam Lotto NL - Jumbo03:54:34  +  00:16:19=42,205 
169169 USATaylor PhinneyUSACannondale-Drapac Pro Cycling ..03:54:34  +  00:16:19=42,205 
170170 FRAYoann OffredoBELWanty – Groupe Gobert03:54:34  +  00:16:19=42,205 
171171 ESPLuis Angel MateFRACofidis – Solutions Crédits04:04:32  +  00:26:17=40,485 
172172 FRALaurent PichonFRAFortuneo - Vital Concept04:04:32  +  00:26:17=40,485 
173173 ENGDaniel McLayFRAFortuneo - Vital Concept04:04:32  +  00:26:17=40,485 

Withdrawls: 2
 
Rider
Team
Reason
104  BELPhilippe GilbertBELQuick-Step FloorsDid not start
162  NZLGeorge BennettNLDTeam Lotto NL - JumboDid not finish
Todays birthdays.

1878  Jean Novo
1883  Jules Chabas
1890  Ange Aubry
1893  Roger Marye
1913  Paul Maye
1914  Lucien Vlaemynck
1915  Alphonse Antoine
1932  Rolf Graf
1953  Julio Rubiano
1959  Jos Haex
1959  Gerard Veldscholten
1963  Pablo Moreno
1964  Juan Castillo
1977  Iban Mayo
1994  Fernando Gaviria